Location: Rev�
(46.3833°N, 11.0500°E)
Time: 21:20:33
(UTC+00:00)

Daily predictions for brighter satellites

Satellite Brightness Start Highest point End
(mag) Time Altitude Azimuth Time Altitude Azimuth Time Altitude Azimuth
NOSS 3-2 (A) 4.2 17:21:48 10° NW 17:29:11 66° NE 17:37:33 10° SE
Meteor 1-21 4.4 17:31:24 10° NNW 17:37:01 84° W 17:42:37 10° S
Cosmos 2151 Rocket 4.4 17:35:00 10° SSE 17:38:50 29° E 17:42:44 10° NNE
Lacrosse 5 rocket 3.5 17:36:20 10° NW 17:39:37 21° N 17:43:00 10° NE
Cosmos 1975 Rocket 3.1 17:36:00 10° N 17:40:20 84° W 17:44:39 10° S
HJ-1C 4.1 17:41:18 10° SE 17:44:15 31° ENE 17:47:15 10° N
COSMO-SKYMED 1 3.2 17:45:45 10° N 17:50:04 63° WNW 17:54:21 10° SSW
Ariane Rocket 4.1 17:48:46 10° ESE 17:52:51 25° ENE 17:56:56 10° N
Nadezhda 4 Rocket 4.3 17:47:15 10° N 17:53:06 45° ENE 17:58:56 10° SSE
H-2A R/B 2.2 17:48:45 10° SE 17:53:34 51° ENE 17:58:33 10° N
Cosmos 1689 Rocket 4.4 17:51:11 10° N 17:53:51 30° WNW 17:56:28 10° SW
SJ 16-02 4.2 17:52:40 10° W 17:55:32 17° NW 17:58:24 10° NNW
Exosat Rocket 4.2 17:52:56 10° SSE 17:57:42 32° ESE 18:02:07 10° NE
Cosmos 2263 Rocket 3.8 17:53:38 10° WSW 17:58:47 38° NW 18:04:01 10° NNE
USA 116 3.7 17:56:38 10° NNE 18:00:19 63° ESE 18:04:26 10° S
Cosmos 1939 Rocket 4.5 17:57:44 10° SSW 18:01:39 40° W 18:05:36 10° NNW
COSMOS 2406 4.4 17:57:31 10° N 18:02:08 25° NE 18:05:51 14° E
Cosmos 1844 Rocket 2.7 17:57:35 10° S 18:03:03 60° ESE 18:08:34 10° NNE
Cosmos 1072 Rocket 4.5 17:56:56 10° S 18:03:11 77° E 18:09:34 10° NNE
Cosmos 372 Rocket 4.2 17:59:40 10° SSW 18:04:55 77° WNW 18:10:09 10° NNE
Cosmos 1707 2.9 18:01:37 10° NNW 18:05:27 76° W 18:09:16 10° S
Cosmos 1626 3.8 18:04:32 10° NNE 18:06:49 15° ENE 18:07:29 15° E
NOSS 3-2 (C) 4.1 18:00:01 10° NW 18:07:27 72° NE 18:15:54 10° SE
Cosmos 2278 Rocket 4.1 18:09:59 11° ENE 18:09:59 11° ENE 18:10:18 10° ENE
Cosmos 1844 3.8 18:04:57 10° S 18:10:30 56° ESE 18:16:00 10° NE
Cosmos 2034 Rocket 4.1 18:04:30 10° S 18:10:42 58° E 18:16:54 10° NNE
ISS -2.7 18:08:40 10° W 18:11:54 41° NNW 18:14:49 12° ENE
NOSS 3-4 (A) 4.0 18:06:48 10° S 18:12:00 33° ESE 18:17:28 10° NE
NOSS 3-4 (C) 4.0 18:06:56 10° S 18:12:07 33° ESE 18:17:34 10° NE
USA 186 2.8 18:11:04 18° ESE 18:12:38 27° ENE 18:15:29 10° N
Meteor 2-5 Rocket 4.3 18:08:04 10° N 18:13:18 36° ENE 18:18:16 11° SE
Meteor 1-12 Rocket 4.3 18:08:15 10° S 18:14:08 88° E 18:19:57 10° NNE
Lacrosse 4 Rocket 3.6 18:13:41 10° NNE 18:15:07 12° NE 18:16:33 10° ENE
Cosmos 1300 Rocket 3.7 18:15:02 10° SSW 18:19:26 81° W 18:23:55 10° N
Okean 1 Rocket 3.6 18:18:32 10° SSE 18:22:41 38° E 18:26:50 10° NNE
SL-14 R/B 4.5 18:22:48 10° NNE 18:26:00 23° ENE 18:26:27 22° E
Cosmos 2298 Rocket 4.3 18:20:52 10° SSW 18:26:12 75° WNW 18:31:33 10° NNE
Resurs 01 Rocket 3.4 18:25:51 15° ENE 18:26:14 16° ENE 18:28:51 10° NNE
CENTAUR R/B 3.2 18:18:28 10° NW 18:26:34 83° NE 18:34:46 13° SE
Cosmos 1833 Rocket 3.7 18:22:52 10° N 18:27:43 28° NE 18:30:12 21° E
CSL-04 Rocket 4.1 18:26:16 10° S 18:31:41 66° WSW 18:37:12 10° NNW
Cosmos 1766 3.7 18:30:01 10° SSE 18:33:40 40° E 18:37:23 10° NNE
Okean 2 Rocket 3.8 18:29:37 10° SSW 18:34:02 56° WNW 18:38:26 10° N
YAOGAN 1 4.2 18:30:27 10° SSW 18:34:26 36° W 18:38:27 10° NNW
ATLAS 2AS CENTAUR R/B 3.2 18:26:54 10° S 18:34:26 50° ESE 18:41:58 10° NE
Cosmos 1025 Rocket 3.8 18:30:32 10° NNW 18:34:51 56° W 18:39:09 10° S
Cosmos 1634 Rocket 4.3 18:32:45 10° SSE 18:38:29 43° E 18:44:18 10° NNE
ATLAS 3B R/B 3.3 18:32:17 10° NNW 18:38:46 43° NE 18:42:34 24° E
SPOT 3 Rocket 4.4 18:40:10 26° E 18:41:40 31° ENE 18:46:09 10° N
Abrixas rocket 1.9 18:39:00 10° WNW 18:41:50 65° SSW 18:42:11 56° SSE
CREW DRAGON DEMO-1 DEB 2.8 18:40:44 10° WNW 18:43:44 71° SSW 18:44:16 54° SSE
Cosmos 1536 Rocket 4.1 18:40:15 10° NNW 18:44:39 60° W 18:49:03 10° S
Cosmos 1125 Rocket 3.6 18:41:30 10° SSW 18:46:49 79° WNW 18:52:11 10° NNE
EP 2 4.4 18:45:11 10° SSW 18:48:09 75° SE 18:48:34 60° ENE
Resurs 1-3 4.2 18:48:54 33° E 18:49:24 35° ENE 18:53:24 10° N
SJ-6B 2.7 18:48:31 41° SE 18:49:35 60° ENE 18:53:20 10° N
Cosmos 1892 Rocket 4.2 18:47:29 10° N 18:51:24 33° ENE 18:51:24 33° ENE
CZ-4 R/B 4.2 18:49:08 10° SW 18:52:13 20° W 18:55:17 10° NW
Cosmos 2195 Rocket 4.4 18:48:46 10° N 18:55:02 72° E 19:00:07 16° SSE
Cosmos 1627 Rocket 4.5 18:50:15 10° N 18:56:39 68° E 19:01:24 19° SSE
Cosmos 1674 3.2 18:53:14 10° NNW 18:57:02 59° W 19:00:17 13° S
Cosmos 2285 Rocket 4.0 18:51:12 10° SSW 18:57:31 86° WNW 19:03:56 10° NNE
Cosmos 2026 Rocket 4.0 18:51:32 10° N 18:57:54 66° E 19:02:16 21° SSE
Cosmos 1092 Rocket 3.9 18:51:53 10° N 18:58:05 84° E 19:04:17 10° S
MOS 1 Rocket 4.1 18:58:50 10° N 19:03:03 47° WNW 19:07:09 10° SW
FREGAT/IRIS 4.0 19:04:41 27° NNW 19:04:41 27° NNW 19:06:02 10° NNW
Cosmos 1428 Rocket 4.4 19:00:12 10° N 19:06:28 72° E 19:10:06 26° SSE
TSX-5 3.9 19:04:56 10° SSW 19:08:46 89° ESE 19:13:44 10° NNE
ARGOS 4.0 19:04:30 10° S 19:09:40 48° W 19:14:53 10° NNW
CZ-2C R/B 2.7 19:07:47 10° NNE 19:13:23 89° ESE 19:19:01 10° SSW
Cosmos 1340 Rocket 3.3 19:15:11 46° NNE 19:15:11 46° NNE 19:18:10 10° NNE
Cosmos 2279 Rocket 4.1 19:12:58 37° SE 19:15:00 51° E 19:21:02 10° NNE
Cosmos 1733 3.3 19:13:47 25° SSW 19:15:53 72° W 19:19:43 10° N
MOS 1 4.4 19:13:05 22° S 19:16:58 78° WSW 19:22:42 10° NNW
Lacrosse 5 rocket 3.0 19:16:14 10° NW 19:19:59 26° NNE 19:20:43 25° NNE
Cosmos 2082 Rocket 2.7 19:15:39 10° NNW 19:20:55 39° NE 19:21:17 39° ENE
Cosmos 2098 Rocket 4.3 19:14:49 10° N 19:21:07 41° ENE 19:21:19 41° ENE
DMSP B5D2-2 4.0 19:17:54 10° NNE 19:23:14 87° WNW 19:28:31 10° SSW
BREEZE-M DEB (TANK) 4.4 19:20:19 10° W 19:23:58 39° SSW 19:27:36 26° SSE
BREEZE-M R/B 3.4 19:15:52 10° WSW 19:24:11 73° NNW 19:24:25 69° NNE
OBJECT-B 2.4 19:28:48 31° NNW 19:28:48 31° NNW 19:30:39 10° NNW
Cosmos 2142 Rocket 4.3 19:24:37 23° S 19:28:41 75° E 19:34:53 10° NNE
Ariane Rocket 3.8 19:28:06 19° SSW 19:31:31 48° W 19:36:27 10° NNW
Milstar 3 Cent rocket 4.3 19:30:37 10° SSW 19:32:39 12° SSW 19:32:39 12° SSW
H-2A R/B 4.3 19:29:28 10° SW 19:33:19 22° W 19:37:16 10° NW
USA 234 4.5 19:38:13 24° S 19:38:13 24° S 19:40:59 10° SSW
Terra 4.2 19:42:51 12° NNE 19:42:51 12° NNE 19:43:27 10° NNE
Cosmos 1626 3.4 19:38:47 10° NNW 19:42:02 39° W 19:42:02 39° W
Okean 1-7 Rocket 4.0 19:38:09 10° N 19:41:51 57° N 19:41:51 57° N
USA 186 4.4 19:42:34 16° WSW 19:43:22 18° W 19:45:41 10° NW
COSMOS 2406 3.4 19:41:18 10° NNW 19:46:56 66° WSW 19:47:55 55° SSW
ISS -1.3 19:46:06 10° WNW 19:47:46 23° NW 19:47:46 23° NW
Cosmos 2278 Rocket 2.2 19:45:13 10° SSW 19:51:32 71° NE 19:56:34 10° NNE
Lacrosse 4 Rocket 2.8 19:50:31 10° NNW 19:52:52 32° NNW 19:52:52 32° NNW
Cosmos 909 Rocket 4.0 19:53:21 10° NNW 19:59:51 69° NE 19:59:55 69° NE
Cosmos 2266 Rocket 4.1 19:55:28 10° N 20:00:33 57° NE 20:00:33 57° NE
Resurs 01 Rocket 2.6 20:03:26 45° NW 20:03:26 45° NW 20:06:40 10° NNW
NOSS 3-4 (A) 4.1 19:56:47 10° WSW 20:02:35 53° NW 20:08:51 10° NE
NOSS 3-4 (C) 4.1 19:56:52 10° WSW 20:02:40 53° NW 20:08:58 10° NE
Meteor 2-19 Rocket 4.4 19:57:14 10° NNW 20:03:21 79° W 20:03:47 74° SW
Cosmos 1833 Rocket 3.1 20:06:28 10° NW 20:11:54 56° WSW 20:11:54 56° WSW
Cosmos 2251 Rocket 4.1 20:09:30 10° NNW 20:13:44 56° NNW 20:13:44 56° NNW
ARIANE 5 R/B 4.4 20:20:05 27° NNW 20:20:05 27° NNW 20:22:06 10° NNW
ATLAS 2AS CENTAUR R/B 3.7 20:17:46 10° WSW 20:25:32 53° NW 20:33:09 10° NE
ATLAS 3B R/B 3.1 20:22:59 10° NW 20:29:40 54° WSW 20:29:50 54° SW
Cosmos 1655 Rocket 4.5 20:31:53 10° NNW 20:37:50 55° W 20:37:50 55° W
Lacrosse 5 rocket 4.2 20:55:15 10° NW 20:56:20 17° NW 20:56:20 17° NW
Cosmos 2082 Rocket 3.8 20:59:51 10° NW 21:03:08 29° WNW 21:03:08 29° WNW
Terra 4.4 21:21:44 16° NNW 21:21:44 16° NNW 21:22:43 10° NNW
Cosmos 2278 Rocket 4.5 21:33:01 15° WNW 21:35:43 20° NW 21:39:51 10° N
SL-16 R/B 4.4 23:50:37 24° NNE 23:50:37 24° NNE 23:53:27 10° N
